Retour au catalogue

COSMOS 1818 COOLANT

LostLEO
NORAD 50784·DEBRIS·🇷🇺 Russia

Lancé Feb 1, 1987 depuis Baikonur Cosmodrome

Loading…

Prochains Passages (prochaines 24 heures)

TLE

PériméSource: Space-Track

Époque: Oct 19, 2022, 14:02 UTC

1 50784U 87011AZ  22292.58521041  .00000545  00000-0  22931-3 0  9998
2 50784  65.0199   2.1557 0012472 264.8554 164.9040 14.34319668527807

Suivez COSMOS 1818 COOLANT en temps réel avec AllMySat

Download on the App Store